| time (UTC) | temp F | wind direction | speed MPH | gust MPH | rain 1hr in | rain 24hr in | rain mn in | humidity % | barometer mb |
| 20260506232949 | 53 | 0.0 | 0.0 | 0.00 | 0.00 | 0.00 | 76 | 1010.5 | |
| 20260506232007 | 54 | 0.0 | 0.0 | 0.00 | 0.00 | 0.00 | 76 | 1010.5 | |
| 20260506230949 | 54 | 0.0 | 0.0 | 0.00 | 0.00 | 0.00 | 76 | 1010.4 | |
| 20260506225948 | 54 | 0.0 | 0.0 | 0.00 | 0.00 | 0.00 | 75 | 1010.4 | |
| 20260506224948 | 54 | 0.0 | 0.0 | 0.00 | 0.00 | 0.00 | 75 | 1010.4 | |
| 20260506224006 | 54 | 0.0 | 0.0 | 0.00 | 0.00 | 0.00 | 75 | 1010.4 | |
| 20260506222947 | 54 | 0.0 | 0.0 | 0.00 | 0.00 | 0.00 | 76 | 1010.4 | |
| 20260506221947 | 54 | 0.0 | 0.0 | 0.00 | 0.00 | 0.00 | 76 | 1010.3 | |
| 20260506220947 | 54 | 0.0 | 0.0 | 0.00 | 0.00 | 0.00 | 76 | 1010.2 | |
| 20260506215947 | 54 | 0.0 | 0.0 | 0.00 | 0.00 | 0.00 | 75 | 1010.1 | |
| 20260506214946 | 54 | 0.0 | 0.0 | 0.00 | 0.00 | 0.00 | 75 | 1010.0 | |
| 20260506213945 | 54 | 0.0 | 0.0 | 0.00 | 0.00 | 0.00 | 75 | 1009.8 | |
| 20260506212945 | 54 | 0.0 | 0.0 | 0.00 | 0.00 | 0.00 | 75 | 1009.7 | |
| 20260506212003 | 54 | 0.0 | 0.0 | 0.00 | 0.00 | 0.00 | 74 | 1009.6 | |
| 20260506210944 | 54 | 0.0 | 0.0 | 0.00 | 0.00 | 0.00 | 73 | 1009.5 | |
| 20260506205944 | 54 | 0.0 | 0.0 | 0.00 | 0.00 | 0.00 | 73 | 1009.4 | |
| 20260506204947 | 54 | 0.0 | 0.0 | 0.00 | 0.00 | 0.00 | 74 | 1009.4 | |
| 20260506203943 | 54 | 0.0 | 0.0 | 0.00 | 0.00 | 0.00 | 75 | 1009.5 | |
| 20260506202943 | 55 | 0.0 | 0.0 | 0.00 | 0.00 | 0.00 | 75 | 1009.4 | |
| 20260506201943 | 54 | 0.0 | 0.0 | 0.00 | 0.00 | 0.00 | 74 | 1009.3 | |
| 20260506200942 | 54 | 0.0 | 0.0 | 0.00 | 0.00 | 0.00 | 74 | 1009.3 | |
| 20260506195942 | 54 | 0.0 | 0.0 | 0.00 | 0.00 | 0.00 | 74 | 1009.2 | |
| 20260506194942 | 54 | 0.0 | 0.0 | 0.00 | 0.00 | 0.00 | 74 | 1009.1 | |
| 20260506193957 | 55 | 0.0 | 0.0 | 0.00 | 0.00 | 0.00 | 73 | 1008.9 | |
| 20260506192941 | 55 | 0.0 | 0.0 | 0.00 | 0.00 | 0.00 | 74 | 1008.8 | |
| 20260506191941 | 56 | 0.0 | 0.0 | 0.00 | 0.00 | 0.00 | 75 | 1008.6 | |
| 20260506185914 | 56 | 0.0 | 0.0 | 0.00 | 0.00 | 0.00 | 74 | 1008.3 | |
| 20260506184913 | 56 | 0.0 | 0.0 | 0.00 | 0.00 | 0.00 | 74 | 1008.0 | |
| 20260506183913 | 55 | 0.0 | 0.0 | 0.00 | 0.00 | 0.00 | 74 | 1008.0 | |
| 20260506182913 | 56 | 0.0 | 0.0 | 0.00 | 0.00 | 0.00 | 74 | 1007.8 | |
| 20260506181913 | 56 | 0.0 | 0.0 | 0.00 | 0.00 | 0.00 | 75 | 1007.7 | |
| 20260506180911 | 56 | 0.0 | 0.0 | 0.00 | 0.00 | 0.00 | 76 | 1007.6 | |
| 20260506174845 | 56 | 0.0 | 0.0 | 0.00 | 0.00 | 0.00 | 77 | 1007.5 | |
| 20260506173844 | 56 | 0.0 | 0.0 | 0.00 | 0.00 | 0.00 | 77 | 1007.4 | |
| 20260506172844 | 56 | 0.0 | 0.0 | 0.00 | 0.00 | 0.00 | 77 | 1007.3 | |
| 20260506171843 | 56 | 0.0 | 0.0 | 0.00 | 0.00 | 0.00 | 76 | 1007.3 | |
| 20260506170843 | 56 | 0.0 | 0.0 | 0.00 | 0.00 | 0.00 | 77 | 1007.3 | |
| 20260506165843 | 57 | 0.0 | 0.0 | 0.00 | 0.00 | 0.00 | 77 | 1007.3 | |
| 20260506164843 | 57 | 0.0 | 0.0 | 0.00 | 0.00 | 0.00 | 77 | 1007.2 | |
| 20260506163843 | 57 | 0.0 | 0.0 | 0.00 | 0.00 | 0.00 | 76 | 1007.2 | |
| 20260506162842 | 57 | 0.0 | 0.0 | 0.00 | 0.00 | 0.00 | 76 | 1007.2 | |
| 20260506161842 | 57 | 0.0 | 0.0 | 0.00 | 0.00 | 0.00 | 76 | 1007.1 | |
| 20260506160841 | 57 | 0.0 | 0.0 | 0.00 | 0.00 | 0.00 | 77 | 1007.1 | |
| 20260506155857 | 57 | 0.0 | 0.0 | 0.00 | 0.00 | 0.00 | 76 | 1007.1 | |
| 20260506154840 | 57 | 0.0 | 0.0 | 0.00 | 0.00 | 0.00 | 75 | 1007.1 | |
| 20260506153840 | 58 | 0.0 | 0.0 | 0.00 | 0.00 | 0.00 | 74 | 1007.0 | |
| 20260506152840 | 58 | 0.0 | 0.0 | 0.00 | 0.00 | 0.00 | 74 | 1006.9 | |
| 20260506151840 | 58 | 0.0 | 0.0 | 0.00 | 0.00 | 0.00 | 74 | 1006.8 | |
| 20260506150839 | 58 | 0.0 | 0.0 | 0.00 | 0.00 | 0.00 | 74 | 1006.7 | |
| 20260506145838 | 58 | 0.0 | 0.0 | 0.00 | 0.00 | 0.00 | 74 | 1006.6 | |
| 20260506144838 | 58 | 0.0 | 0.0 | 0.00 | 0.00 | 0.00 | 74 | 1006.5 | |
| 20260506143838 | 58 | 0.0 | 0.0 | 0.00 | 0.00 | 0.00 | 74 | 1006.4 | |
| 20260506142838 | 58 | 0.0 | 0.0 | 0.00 | 0.00 | 0.00 | 75 | 1006.3 | |
| 20260506141837 | 58 | 0.0 | 0.0 | 0.00 | 0.00 | 0.00 | 74 | 1006.3 | |
| 20260506140852 | 59 | 0.0 | 0.0 | 0.00 | 0.00 | 0.00 | 74 | 1006.3 | |
| 20260506135843 | 59 | 0.0 | 0.0 | 0.00 | 0.00 | 0.00 | 75 | 1006.2 | |
| 20260506134836 | 59 | 0.0 | 0.0 | 0.00 | 0.00 | 0.00 | 75 | 1006.2 | |
| 20260506133836 | 59 | 0.0 | 0.0 | 0.00 | 0.00 | 0.00 | 75 | 1006.2 | |
| 20260506132836 | 59 | 0.0 | 0.0 | 0.00 | 0.00 | 0.00 | 74 | 1006.1 | |
| 20260506131853 | 59 | 0.0 | 0.0 | 0.00 | 0.00 | 0.00 | 74 | 1006.1 | |
| 20260506130854 | 59 | 0.0 | 0.0 | 0.00 | 0.00 | 0.00 | 73 | 1006.0 | |
| 20260506125835 | 59 | 0.0 | 0.0 | 0.00 | 0.00 | 0.00 | 75 | 1005.9 | |
| 20260506124834 | 59 | 0.0 | 0.0 | 0.00 | 0.00 | 0.00 | 74 | 1005.8 | |
| 20260506123852 | 60 | 0.0 | 0.0 | 0.00 | 0.00 | 0.00 | 75 | 1005.6 | |
| 20260506122833 | 60 | 0.0 | 0.0 | 0.00 | 0.00 | 0.00 | 75 | 1005.5 | |
| 20260506120806 | 60 | 0.0 | 0.0 | 0.00 | 0.00 | 0.00 | 76 | 1005.5 | |
| 20260506115806 | 60 | 0.0 | 0.0 | 0.00 | 0.00 | 0.00 | 76 | 1005.4 | |
| 20260506114806 | 60 | 0.0 | 0.0 | 0.00 | 0.00 | 0.00 | 76 | 1005.3 | |
| 20260506113823 | 60 | 0.0 | 0.0 | 0.00 | 0.00 | 0.00 | 75 | 1005.3 | |
| 20260506112805 | 60 | 0.0 | 0.0 | 0.00 | 0.00 | 0.00 | 75 | 1005.2 | |
| 20260506111804 | 60 | 0.0 | 0.0 | 0.00 | 0.00 | 0.00 | 75 | 1005.2 | |
| 20260506110804 | 61 | 0.0 | 0.0 | 0.00 | 0.00 | 0.00 | 76 | 1005.2 | |
| 20260506105803 | 61 | 0.0 | 0.0 | 0.00 | 0.00 | 0.00 | 74 | 1005.2 | |
| 20260506104803 | 61 | 0.0 | 0.0 | 0.00 | 0.00 | 0.00 | 77 | 1005.2 | |
| 20260506103803 | 60 | 0.0 | 0.0 | 0.00 | 0.00 | 0.00 | 77 | 1005.2 | |
| 20260506102803 | 60 | 0.0 | 0.0 | 0.00 | 0.00 | 0.00 | 78 | 1005.2 | |
| 20260506101802 | 60 | 0.0 | 0.0 | 0.00 | 0.00 | 0.00 | 79 | 1005.1 | |
| 20260506100802 | 59 | 0.0 | 0.0 | 0.00 | 0.00 | 0.00 | 79 | 1005.1 | |
| 20260506095802 | 59 | 0.0 | 0.0 | 0.00 | 0.00 | 0.00 | 79 | 1005.0 | |
| 20260506094801 | 59 | 0.0 | 0.0 | 0.00 | 0.00 | 0.00 | 80 | 1005.0 | |
| 20260506093801 | 59 | 0.0 | 0.0 | 0.00 | 0.00 | 0.00 | 81 | 1005.0 | |
| 20260506092801 | 59 | 0.0 | 0.0 | 0.00 | 0.00 | 0.00 | 81 | 1005.0 | |
| 20260506091800 | 58 | 0.0 | 0.0 | 0.00 | 0.00 | 0.00 | 80 | 1004.9 | |
| 20260506090800 | 58 | 0.0 | 0.0 | 0.00 | 0.00 | 0.00 | 80 | 1004.8 | |
| 20260506085800 | 58 | 0.0 | 0.0 | 0.00 | 0.00 | 0.00 | 79 | 1004.8 | |
| 20260506084800 | 59 | 0.0 | 0.0 | 0.00 | 0.00 | 0.00 | 80 | 1004.7 | |
| 20260506083759 | 59 | 0.0 | 0.0 | 0.00 | 0.00 | 0.00 | 80 | 1004.7 | |
| 20260506082759 | 59 | 0.0 | 0.0 | 0.00 | 0.00 | 0.00 | 80 | 1004.6 | |
| 20260506081758 | 59 | 0.0 | 0.0 | 0.00 | 0.00 | 0.00 | 80 | 1004.5 | |
| 20260506080758 | 59 | 0.0 | 0.0 | 0.00 | 0.00 | 0.00 | 80 | 1004.5 | |
| 20260506072815 | 58 | 0.0 | 0.0 | 0.00 | 0.00 | 0.00 | 82 | 1004.6 | |
| 20260506071811 | 57 | 0.0 | 0.0 | 0.00 | 0.00 | 0.00 | 82 | 1004.6 | |
| 20260506070756 | 57 | 0.0 | 0.0 | 0.00 | 0.00 | 0.00 | 83 | 1004.5 | |
| 20260506061754 | 57 | 0.0 | 0.0 | 0.00 | 0.00 | 0.00 | 83 | 1004.3 | |
| 20260506060754 | 57 | 0.0 | 0.0 | 0.00 | 0.00 | 0.00 | 82 | 1004.2 | |
| 20260506050752 | 57 | 0.0 | 0.0 | 0.00 | 0.00 | 0.00 | 83 | 1004.2 | |
| 20260506044809 | 57 | 0.0 | 0.0 | 0.00 | 0.00 | 0.00 | 85 | 1004.2 | |
| 20260506043751 | 57 | 0.0 | 0.0 | 0.00 | 0.00 | 0.00 | 85 | 1004.3 | |
| 20260506042750 | 57 | 0.0 | 0.0 | 0.00 | 0.00 | 0.00 | 85 | 1004.3 | |
| 20260506041806 | 57 | 0.0 | 0.0 | 0.00 | 0.00 | 0.00 | 85 | 1004.4 | |
| 20260506040750 | 57 | 0.0 | 0.0 | 0.00 | 0.00 | 0.00 | 84 | 1004.5 | |
| 20260506035750 | 57 | 0.0 | 0.0 | 0.00 | 0.00 | 0.00 | 84 | 1004.5 | |
| 20260506034749 | 57 | 0.0 | 0.0 | 0.00 | 0.00 | 0.00 | 85 | 1004.6 | |
| 20260506033749 | 57 | 0.0 | 0.0 | 0.00 | 0.00 | 0.00 | 85 | 1004.7 | |
| 20260506032806 | 57 | 0.0 | 0.0 | 0.00 | 0.00 | 0.00 | 85 | 1004.7 | |
| 20260506031748 | 57 | 0.0 | 0.0 | 0.00 | 0.00 | 0.00 | 85 | 1004.7 | |
| 20260506030747 | 57 | 0.0 | 0.0 | 0.00 | 0.00 | 0.00 | 84 | 1004.8 | |
| 20260506025747 | 57 | 0.0 | 0.0 | 0.00 | 0.00 | 0.00 | 85 | 1004.7 | |
| 20260506024747 | 57 | 0.0 | 0.0 | 0.00 | 0.00 | 0.00 | 85 | 1004.8 | |
| 20260506023746 | 57 | 0.0 | 0.0 | 0.00 | 0.00 | 0.00 | 85 | 1004.8 | |
| 20260506022746 | 57 | 0.0 | 0.0 | 0.00 | 0.00 | 0.00 | 85 | 1004.7 | |
| 20260506021747 | 57 | 0.0 | 0.0 | 0.00 | 0.00 | 0.00 | 85 | 1004.7 | |
| 20260506020746 | 57 | 0.0 | 0.0 | 0.00 | 0.00 | 0.00 | 85 | 1004.8 | |
| 20260506015801 | 57 | 0.0 | 0.0 | 0.00 | 0.00 | 0.00 | 85 | 1004.8 | |
| 20260506014746 | 57 | 0.0 | 0.0 | 0.00 | 0.00 | 0.00 | 85 | 1004.9 | |
| 20260506013744 | 57 | 0.0 | 0.0 | 0.00 | 0.00 | 0.00 | 85 | 1004.9 | |
| 20260506012745 | 57 | 0.0 | 0.0 | 0.00 | 0.00 | 0.00 | 85 | 1004.9 | |
| 20260506011744 | 57 | 0.0 | 0.0 | 0.00 | 0.00 | 0.00 | 86 | 1005.0 | |
| 20260506010744 | 58 | 0.0 | 0.0 | 0.00 | 0.00 | 0.00 | 86 | 1005.0 | |
| 20260506005743 | 57 | 0.0 | 0.0 | 0.00 | 0.00 | 0.00 | 86 | 1005.0 | |
| 20260506004743 | 58 | 0.0 | 0.0 | 0.00 | 0.00 | 0.00 | 86 | 1005.2 | |
| 20260506003743 | 58 | 0.0 | 0.0 | 0.00 | 0.00 | 0.00 | 85 | 1005.2 | |
| 20260506001715 | 58 | 0.0 | 0.0 | 0.00 | 0.00 | 0.00 | 85 | 1005.3 | |
| 20260506000715 | 58 | 0.0 | 0.0 | 0.00 | 0.00 | 0.00 | 85 | 1005.4 | |
| 20260505235715 | 57 | 0.0 | 0.0 | 0.00 | 0.00 | 0.00 | 85 | 1005.5 | |
| 20260505234714 | 58 | 0.0 | 0.0 | 0.00 | 0.00 | 0.00 | 85 | 1005.6 | |
| 20260505233715 | 58 | 0.0 | 0.0 | 0.00 | 0.00 | 0.00 | 85 | 1005.8 |